Lapse_Rate
7.3 7.3 6.2 6.9 5.0 4.4 4.7 7.9 6.0 5.1 5.0 4.2 4.7 4.6 4.3 3.5 3.7 2.5 1.7 1.5 1.6 1.7 1.2 2.6 2.9 3.4 2.9 2.7 3.8 3.2 2.2 2.0 1.4 -1.6 0.5 0.8 0.5 0.6 0.6 2.0 1.2 1.5 1.7
6.7 6.6 7.9 7.0 5.2 6.6 3.8 7.8 5.4 5.4 5.6 4.4 4.3 4.9 3.9 3.8 3.4 2.5 2.3 2.6 1.4 1.8 1.8 1.9 3.5 3.3 3.1 3.6 3.6 2.8 1.3 0.7 0.7 -0.8 -1.3 1.1 1.2 0.6 0.5 1.0 0.6 0.6 1.2
6.0 6.0 5.2 5.3 6.8 6.5 4.5 7.0 5.0 5.3 5.7 4.5 4.5 3.1 3.6 3.5 2.9 2.1 2.2 1.8 1.9 1.6 0.7 2.0 2.5 3.6 2.9 3.0 3.0 1.9 1.5 0.2 0.3 1.4 -0.8 0.6 0.4 -0.4 -0.7 0.0 -0.8 0.1 -0.6
6.7 5.7 3.5 2.3 2.6 2.7 5.4 5.8 5.5 5.2 5.1 4.6 4.5 3.3 3.8 4.6 3.2 2.5 2.4 1.9 2.0 1.7 1.0 1.5 2.6 3.4 2.1 3.1 2.1 1.5 0.5 -0.7 -0.5 -0.8 -0.6 -1.4 -2.0 -0.6 -0.6 -0.9 -1.4 -1.0 -0.7
7.6 6.6 4.2 2.2 2.3 0.4 1.2 2.9 4.4 4.6 5.2 5.4 5.0 3.6 4.0 4.5 2.8 2.6 2.6 1.9 1.4 0.9 0.2 0.4 0.8 3.2 2.9 2.2 2.4 1.0 0.3 -0.1 -1.9 -2.4 -2.4 -1.2 -1.7 -1.5 -2.8 -2.8 -2.8 -2.0 -2.3
7.2 5.8 5.2 1.6 0.5 0.1 -0.4 0.8 -0.2 4.7 5.2 5.8 5.3 5.1 3.6 3.4 3.0 2.4 2.6 1.4 0.7 0.2 0.4 0.3 0.8 2.5 2.2 2.1 1.3 0.6 -0.2 -0.1 -1.6 -2.6 -2.1 -2.3 -1.8 -1.6 -1.3 -2.3 -3.6 -3.1 -2.5
7.0 6.4 5.1 0.7 0.4 -0.2 1.9 1.8 0.3 0.7 5.1 5.0 4.6 5.0 4.0 2.4 1.5 1.0 2.0 1.3 0.8 0.2 0.1 0.5 0.7 0.9 1.1 1.8 2.5 0.7 -0.6 -0.4 -1.0 -2.0 -1.5 -0.8 -0.2 -1.3 -0.7 -2.1 -3.3 -2.0 -1.8
7.3 6.7 6.2 4.0 1.5 -0.0 1.6 1.2 -0.1 -1.1 1.8 4.9 5.2 5.6 4.7 4.1 2.8 1.9 0.9 1.3 1.3 0.4 0.8 0.7 1.0 1.5 2.4 2.1 2.8 1.9 0.4 -0.2 -2.4 -1.2 -0.8 -0.9 -0.6 -0.7 -1.0 -1.9 -3.4 -2.9 -2.7
7.3 7.0 6.2 6.0 3.1 -0.5 -0.2 2.5 -0.6 0.8 -1.4 5.3 5.1 4.4 3.4 3.1 2.4 2.6 1.6 1.0 1.0 0.9 0.6 0.7 0.8 1.8 2.8 2.5 2.3 2.0 1.3 1.1 -1.5 -0.9 -1.1 -0.6 -0.9 -1.0 -0.9 -0.7 -1.0 -2.7 -3.9
7.4 7.4 7.1 5.7 3.7 1.8 -0.1 -0.0 -0.2 0.2 -1.1 -1.9 4.7 4.0 3.1 2.8 2.2 2.0 1.8 1.8 1.6 1.2 0.3 0.9 0.9 1.4 2.3 3.1 2.9 2.4 2.3 0.6 -0.8 -0.9 -0.9 -0.5 -0.9 -1.3 -1.6 -1.3 -0.2 -0.4 -1.7
7.1 7.2 7.3 6.0 4.4 2.4 1.8 -1.5 -1.9 -0.1 0.5 -1.3 2.1 3.9 3.6 3.5 2.6 2.5 2.1 1.4 1.6 1.8 0.8 1.2 1.1 1.6 1.9 3.2 3.1 3.1 3.0 1.2 0.3 -0.6 -0.1 -0.4 -0.8 -1.6 -1.5 -1.7 -0.7 -0.8 -0.8
7.1 7.3 7.3 6.1 5.6 4.1 3.1 0.5 -0.2 -1.0 -1.4 0.4 -1.7 3.5 4.0 3.9 3.0 2.8 2.4 2.0 2.0 1.7 1.4 1.7 2.2 2.4 2.7 3.5 3.5 3.8 3.2 2.5 0.9 0.0 -0.3 0.1 0.4 -1.2 -1.4 -1.5 -0.9 -1.0 -1.2
7.3 7.3 7.1 7.0 6.2 4.7 3.7 2.8 1.5 -1.1 -1.3 -1.1 0.5 0.5 4.1 3.8 3.6 3.3 2.9 2.8 2.9 2.1 1.8 2.0 2.4 3.4 3.4 3.7 4.3 4.6 3.8 3.5 1.8 0.7 0.5 0.4 0.0 -1.0 -1.8 -1.9 -1.1 -1.5 -0.3
7.1 7.2 7.1 7.0 6.1 5.5 5.2 4.1 2.6 1.8 -0.3 -0.7 1.3 -0.9 0.4 3.9 3.6 3.4 3.1 3.0 2.3 1.9 2.1 2.6 2.9 3.2 2.9 3.0 4.4 4.6 4.3 3.6 3.0 1.1 0.2 0.2 -0.0 0.1 -0.9 -1.0 -1.4 -1.3 -2.2
7.1 7.2 7.2 6.9 6.5 5.9 5.8 4.6 3.6 3.4 1.1 0.5 0.4 -0.1 -1.6 -0.5 4.2 3.0 2.9 2.5 2.3 2.4 2.6 3.0 3.7 3.6 3.7 4.5 4.9 4.7 3.8 3.2 2.0 0.3 -0.2 -0.1 0.0 -0.1 0.1 -0.2 -1.5 -1.6 -2.5
7.3 7.3 7.2 7.0 6.6 6.4 6.4 5.9 4.6 4.2 3.1 1.8 0.5 0.3 -1.5 -1.9 0.6 3.4 3.1 3.2 2.3 2.5 2.9 3.0 3.0 2.8 3.0 3.5 4.1 4.6 3.3 2.1 1.5 0.2 -0.5 -0.2 -0.5 0.1 0.4 0.6 0.2 0.1 -1.3
7.6 7.3 7.1 7.0 6.5 6.6 6.5 5.7 5.2 4.9 3.9 2.8 0.6 -0.6 -0.2 -2.6 -1.5 2.1 3.6 3.0 2.9 3.2 3.3 3.6 3.7 3.4 4.0 3.4 4.0 4.0 2.9 1.7 0.8 0.1 -0.4 -0.6 0.4 -0.5 0.8 1.0 0.4 0.6 1.3
7.6 7.5 7.0 6.6 6.3 6.8 6.1 5.7 5.8 5.6 4.1 3.1 1.7 -0.0 -0.3 -1.4 -1.0 0.1 4.1 3.2 3.0 2.8 3.0 3.8 3.4 2.9 3.4 2.7 3.2 2.9 1.4 1.8 0.6 -0.4 0.3 0.4 -0.6 -0.7 0.1 0.5 -0.0 -0.4 0.7
7.3 7.2 7.2 6.4 6.7 6.5 6.1 5.8 6.3 5.5 4.1 3.5 2.5 1.6 0.5 -0.1 -0.1 -0.4 0.5 3.5 3.0 2.7 2.8 3.0 3.4 3.1 2.8 1.8 2.3 2.4 1.5 1.8 1.4 1.3 1.1 0.9 0.1 -0.1 0.4 0.6 0.4 0.0 -0.5
7.2 7.1 6.7 6.8 6.7 6.5 6.2 6.1 6.1 5.5 4.6 4.0 3.5 2.9 2.7 1.1 1.0 -0.0 -0.0 1.0 3.0 2.1 1.9 1.7 2.5 2.4 2.1 1.7 2.0 2.1 2.4 1.7 1.1 0.7 0.3 -0.3 -0.9 -0.2 0.5 0.7 -0.4 -0.9 -1.3
7.5 7.5 6.9 6.7 7.0 6.9 6.4 6.3 5.9 5.5 5.1 4.4 3.6 3.5 3.2 2.1 1.8 1.0 0.1 0.2 1.4 1.3 0.8 0.3 1.0 1.4 1.0 1.1 1.6 1.8 1.8 1.9 1.4 0.4 0.1 -0.5 0.5 1.0 1.0 0.2 -1.4 -1.4 -1.8
7.5 7.2 6.7 6.5 6.8 6.7 6.2 6.3 5.9 5.7 4.9 4.4 4.1 4.2 3.5 2.8 2.6 1.8 1.4 0.3 1.2 1.8 0.7 0.3 -0.3 0.1 0.4 0.8 1.1 1.0 1.2 1.2 0.5 0.1 0.0 -0.1 0.9 0.8 0.6 0.0 0.2 0.7 -0.2
7.5 7.9 7.0 6.6 6.5 6.1 5.9 6.0 6.0 5.7 4.9 4.5 4.3 4.3 4.5 3.6 2.9 2.4 2.4 1.7 1.2 1.4 0.8 1.1 0.5 -0.3 0.4 1.2 1.5 1.0 0.8 0.5 -0.0 -0.1 -0.2 0.2 0.7 0.7 1.5 1.4 1.4 0.5 -1.8
7.2 7.4 6.6 5.9 6.0 5.9 5.6 5.6 5.8 5.3 5.0 4.4 4.5 4.9 4.7 4.9 3.3 2.9 3.0 2.9 1.8 2.0 1.3 1.2 0.9 -0.2 0.0 0.7 1.3 2.0 1.0 0.7 -0.2 0.5 0.1 0.3 0.4 0.5 0.3 0.7 0.5 -1.4 -1.3
7.4 6.9 6.0 5.4 5.2 5.4 5.4 5.5 5.3 5.0 4.6 4.5 4.7 4.7 5.3 5.1 4.1 3.6 3.3 3.2 2.7 1.9 1.9 1.6 1.1 -0.2 -0.2 0.3 0.7 0.5 0.0 -0.2 -0.4 -1.1 -0.2 -0.5 -0.6 -1.0 -1.2 -1.6 -2.1 -1.6 -1.6
6.6 5.7 5.1 4.5 4.4 4.6 4.8 4.9 4.8 4.9 4.5 4.4 4.8 5.0 6.0 5.5 4.8 4.1 3.7 4.2 3.8 3.3 2.9 3.1 1.5 0.6 0.8 1.0 1.1 1.4 0.7 0.0 0.1 -0.3 -0.7 -0.6 -0.7 -0.6 -0.4 -1.1 -1.5 -0.9 -1.1
Wind_Speed
13 10 16 15 11 19 25 28 16 11 12 9 10 9 8 9 9 9 17 20 19 21 18 11 12 15 12 12 12 10 12 6 9 6 5 4 4 2 3 8 8 7 6
12 10 14 11 13 19 23 18 12 14 11 11 10 7 10 8 10 10 12 21 25 24 18 16 13 12 11 13 12 13 7 5 8 4 4 2 3 3 2 4 5 8 7
16 12 13 13 11 17 18 16 9 15 13 16 10 8 8 7 6 9 10 12 22 22 20 19 15 13 12 12 13 13 13 10 7 10 4 3 4 3 1 3 3 4 5
18 18 18 18 19 19 20 18 10 12 12 17 15 18 10 12 8 10 12 12 20 18 24 23 18 11 9 12 12 11 10 9 11 3 2 2 5 4 2 3 3 4 4
17 18 17 16 17 20 22 18 9 9 13 17 17 15 15 10 9 10 14 14 13 16 21 22 18 14 11 11 14 12 10 8 6 5 3 2 2 3 3 3 3 2 3
18 17 15 15 17 14 20 17 14 10 14 18 17 19 19 13 12 11 12 11 11 10 14 19 17 16 13 13 12 11 10 10 5 3 4 4 4 3 3 3 2 3 4
15 16 18 17 15 17 21 16 13 13 16 18 17 19 19 17 19 17 13 15 11 11 14 15 15 15 15 15 14 12 9 9 8 6 5 3 2 3 3 3 3 3 1
14 15 14 13 14 16 19 20 16 14 11 16 17 17 16 12 12 16 13 12 13 13 18 17 16 17 18 17 17 11 9 10 7 8 6 3 3 2 3 4 4 3 0
16 17 15 11 12 15 19 18 17 14 15 12 14 14 15 16 14 16 14 13 14 13 17 17 16 17 17 17 16 11 14 11 8 9 7 4 3 3 3 3 3 5 3
16 14 15 15 13 13 14 15 15 14 16 20 15 13 15 14 14 14 16 16 15 16 18 18 17 16 16 17 17 13 14 13 8 7 8 5 4 5 3 3 3 2 3
17 17 15 14 14 14 13 17 18 15 14 15 8 15 14 14 14 14 15 15 16 16 19 19 19 19 18 17 16 14 14 16 13 10 10 8 7 5 4 3 2 3 2
15 14 15 17 13 13 13 15 15 15 14 13 14 7 13 14 13 13 15 15 16 16 18 18 19 19 20 19 18 16 15 16 16 13 11 9 7 7 6 4 5 4 3
15 16 15 15 14 16 16 14 15 16 14 14 13 10 13 14 14 14 15 16 16 16 17 18 18 19 18 18 17 16 15 15 15 15 14 12 10 7 5 5 5 4 3
15 15 15 15 15 15 14 13 14 13 13 13 10 12 10 10 14 14 14 16 16 17 17 18 19 18 17 17 17 16 15 14 13 13 14 12 13 12 9 7 6 5 5
17 16 16 16 15 15 15 15 13 13 13 14 12 11 11 9 8 13 14 15 16 16 18 18 17 16 16 13 17 16 15 14 12 11 12 12 13 14 13 8 7 7 5
17 17 17 16 16 16 15 14 13 14 12 11 10 11 12 12 10 10 13 14 15 16 17 18 18 17 12 21 22 18 13 14 13 11 10 10 14 14 16 14 14 13 9
16 15 16 15 15 15 15 15 14 12 11 11 13 13 11 13 12 7 11 13 15 16 17 18 18 18 17 25 25 21 12 13 12 12 10 8 8 11 10 13 14 12 13
16 15 14 15 15 14 15 14 13 11 11 12 12 13 13 12 12 10 8 11 12 14 14 16 18 16 14 24 23 21 11 9 9 10 12 12 8 9 10 8 7 6 8
12 13 12 13 12 13 13 14 11 11 12 13 12 12 12 10 11 10 9 6 9 10 11 13 15 16 15 26 25 20 10 10 10 10 10 11 10 12 13 9 10 8 6
11 11 13 11 11 12 12 12 12 12 13 13 12 10 9 8 9 10 8 6 7 8 8 10 13 15 13 25 27 24 11 12 8 8 8 14 10 17 21 12 10 9 7
13 13 11 11 11 11 12 12 12 14 13 12 11 10 9 9 8 9 7 6 2 7 7 8 9 11 12 16 28 27 13 11 9 8 8 7 18 21 23 16 9 7 8
13 13 11 12 12 12 12 13 12 13 12 12 11 10 9 7 7 8 8 7 3 7 8 8 6 5 9 17 23 25 19 18 11 11 8 9 19 18 18 13 14 15 14
11 10 11 12 12 12 12 12 12 13 14 12 12 11 9 7 7 7 7 6 3 2 7 7 7 6 6 9 23 23 19 19 10 8 12 16 18 18 14 16 16 18 8
11 10 11 12 12 12 13 11 12 13 12 12 12 11 10 9 7 5 5 5 4 1 3 5 7 7 6 7 10 10 10 14 9 14 11 14 14 13 10 12 10 6 6
8 9 9 10 12 13 13 13 13 12 12 11 10 10 8 7 7 6 5 4 4 5 1 2 5 9 9 9 15 16 12 10 12 12 8 8 7 7 6 5 6 6 7
7 9 10 10 11 12 13 12 12 12 11 10 8 8 6 6 5 6 6 9 8 11 8 5 5 3 10 16 18 18 18 22 26 9 9 9 8 9 8 9 8 7 9
Wind_Direction
248 233 269 259 234 272 265 243 183 178 166 156 154 150 147 145 147 151 150 145 145 145 133 138 133 141 143 147 146 142 136 126 128 100 71 38 49 116 131 149 149 151 157
237 246 247 218 234 255 288 230 175 173 174 158 160 162 147 157 157 156 159 157 153 155 151 144 149 151 146 149 152 150 138 126 160 121 112 129 344 323 213 179 155 174 174
351 341 339 338 266 269 276 211 183 175 176 155 148 141 135 134 147 150 151 154 155 154 144 152 148 159 155 159 160 157 160 158 190 175 140 142 191 139 287 244 168 189 175
346 347 352 354 346 336 296 243 179 164 158 154 163 161 161 168 163 159 158 158 158 151 152 153 148 157 154 162 163 162 162 154 173 182 85 87 146 160 161 271 216 212 199
346 345 357 347 344 350 335 311 182 168 167 166 169 166 162 168 160 162 155 158 155 155 158 156 153 162 159 156 163 163 166 167 160 161 141 108 57 107 135 178 215 232 225
347 350 348 359 347 346 339 326 359 181 168 169 169 178 166 157 157 159 158 156 158 156 168 162 162 163 154 160 164 166 164 171 151 144 149 158 164 183 142 137 129 159 233
350 348 357 356 351 347 337 328 357 355 173 171 170 180 174 158 164 164 164 161 163 167 171 172 172 166 159 160 164 170 161 170 170 166 174 175 186 147 131 108 135 139 199
351 351 354 347 347 357 325 338 360 354 311 174 178 178 164 166 168 171 169 171 172 173 170 175 176 171 169 164 171 173 172 170 158 172 174 169 181 140 139 149 135 75 233
349 346 346 349 352 348 345 323 350 356 346 214 176 171 161 167 170 173 173 174 173 173 171 175 174 172 172 168 166 176 176 176 163 171 169 157 169 147 140 140 150 140 155
344 344 348 348 357 356 336 332 355 351 350 334 174 172 169 166 165 170 174 173 173 172 173 174 173 176 174 176 172 178 181 168 165 163 161 160 156 155 148 152 142 113 142
348 346 343 356 349 5 335 351 347 343 5 337 296 165 170 169 167 174 175 174 171 172 175 177 175 176 176 181 178 179 179 174 168 162 167 175 157 164 163 156 144 139 119
343 337 344 355 354 351 349 359 342 341 351 326 330 209 164 166 168 176 174 174 175 172 173 175 179 180 178 177 177 181 178 179 173 166 163 174 171 168 169 170 181 163 160
347 347 354 349 350 355 356 347 341 349 328 337 335 337 168 171 176 177 176 175 174 172 175 174 178 180 177 175 178 181 178 183 177 172 173 173 168 164 166 170 180 162 153
348 352 351 345 350 355 342 346 350 332 341 334 342 349 8 189 176 173 170 169 167 170 173 177 178 177 175 175 180 178 179 181 184 181 173 170 175 177 173 175 178 168 160
351 351 344 347 349 346 345 344 342 336 347 338 356 348 347 357 196 166 169 165 167 171 173 172 174 175 175 176 178 179 178 179 179 176 165 175 181 180 179 171 179 168 160
346 343 342 340 350 344 340 339 338 341 345 349 335 352 353 8 352 169 169 167 169 170 173 175 173 174 177 179 181 179 176 176 173 171 168 175 174 180 176 182 182 180 172
341 339 339 342 338 339 339 341 335 331 344 343 357 359 350 9 346 314 170 170 170 171 178 178 177 179 178 173 178 177 175 167 172 172 168 165 185 171 183 186 181 188 194
341 339 339 340 337 336 336 337 337 338 341 356 357 355 353 5 336 337 184 169 171 174 175 180 180 176 180 173 168 161 154 161 167 167 172 179 171 173 168 170 175 183 199
337 334 336 332 331 334 338 334 333 341 355 352 353 352 347 352 334 344 351 172 166 171 175 177 178 181 186 180 177 170 159 166 168 173 177 176 170 171 159 172 190 194 201
336 330 333 326 333 338 339 332 343 347 353 347 340 339 333 337 333 336 334 322 177 175 167 172 179 180 177 178 178 178 176 176 165 166 175 176 170 179 185 190 180 189 195
333 337 333 337 332 338 341 342 350 351 338 333 336 337 325 335 339 330 329 319 280 145 156 160 165 174 172 179 178 178 179 180 170 171 180 178 184 183 184 174 170 175 136
338 337 341 341 337 346 345 346 352 334 335 336 341 319 331 337 340 335 332 331 301 153 148 147 132 155 157 171 178 174 175 169 163 172 173 171 174 172 175 163 159 153 149
332 337 342 343 340 345 342 339 337 335 338 344 336 330 333 337 339 341 346 334 335 134 151 163 159 153 156 166 176 174 166 162 149 160 163 158 164 160 172 164 161 148 141
329 339 344 341 336 339 338 334 336 338 339 337 334 333 331 352 340 341 340 344 2 23 141 158 163 154 155 161 169 168 155 156 136 143 147 155 158 155 154 153 150 132 141
324 340 338 333 328 333 335 335 336 338 342 337 334 332 327 332 338 346 339 349 349 350 282 182 175 161 169 178 171 169 166 160 146 128 130 140 144 144 138 123 120 136 143
338 339 332 329 326 329 330 329 333 339 334 334 330 324 332 326 343 346 348 354 2 353 343 227 167 180 154 159 158 162 155 148 143 140 151 154 156 155 154 148 143 145 139